Rome, NY

11:49 AM EST on December 13, 2019 (GMT -0500)
Griffiss

Weather History for KRME - November, 2019

Change the Weather History Date:

Saturday, November 16, 2019

  Actual Average Record
Temperature  
Mean Temperature 22 °F -  
Max Temperature 30 °F 49 °F 70 °F (1990)
Min Temperature 15 °F 31 °F 15 °F (2019)
Degree Days  
Heating Degree Days 42    
Moisture  
Dew Point 8 °F    
Average Humidity 56    
Maximum Humidity 74    
Minimum Humidity 41    
Precipitation  
Precipitation 0.00 in - - ()
Sea Level Pressure  
Sea Level Pressure 30.55 in    
Wind  
Wind Speed 5 mph (NNE)    
Max Wind Speed 9 mph    
Max Gust Speed -    
Visibility 10 miles    
Events      
Averages and records for this station are not official NWS values.
T = Trace of Precipitation, MM = Missing Value Source: NWS Daily Summary

Daily Weather History Graph

Daily Weather History Graph

Search for Another Location

Airport or City:

Astronomy

Nov. 16, 2019 Rise Set
Actual Time 6:55 AM EST 4:36 PM EST
Civil Twilight 6:24 AM EST 5:07 PM EST
Nautical Twilight 5:50 AM EST 5:42 PM EST
Astronomical Twilight 5:16 AM EST 6:15 PM EST
Moon 8:04 PM EST (11/16) 10:50 AM EST (11/16)
Length of Visible Light 10h 42m
Length of Day
9h 41m
Waning Gibbous, 82% of the Moon is Illuminated
Nov 16
Waning Gibbous
Nov 19
Last Quarter
Nov 26
New
Dec 4
First Quarter
Dec 12
Full

Hourly Weather History & Observations

Time (EST) Temp. Windchill Dew Point Humidity Pressure Visibility Wind Dir Wind Speed Gust Speed Precip Events Conditions
12:53 AM 25.0 °F 15.5 °F 10.9 °F 55% 30.44 in 10.0 mi North 9.2 mph - N/A   Clear
1:53 AM 21.9 °F 17.2 °F 9.0 °F 58% 30.47 in 10.0 mi North 3.5 mph - N/A   Clear
2:53 AM 21.0 °F 13.4 °F 7.0 °F 55% 30.48 in 10.0 mi Variable 5.8 mph - N/A   Clear
3:53 AM 19.0 °F 13.9 °F 8.1 °F 62% 30.49 in 10.0 mi NNE 3.5 mph - N/A   Clear
4:53 AM 17.1 °F 6.6 °F 8.1 °F 68% 30.52 in 10.0 mi North 8.1 mph - N/A   Clear
5:53 AM 16.0 °F 10.4 °F 7.0 °F 68% 30.55 in 10.0 mi NNE 3.5 mph - N/A   Clear
6:53 AM 15.1 °F 7.7 °F 7.0 °F 70% 30.58 in 10.0 mi NE 4.6 mph - N/A   Clear
7:53 AM 15.1 °F 9.4 °F 8.1 °F 74% 30.61 in 10.0 mi North 3.5 mph - N/A   Clear
8:53 AM 17.1 °F - 8.1 °F 68% 30.62 in 10.0 mi Calm Calm - N/A   Clear
9:53 AM 21.0 °F 14.6 °F 10.0 °F 63% 30.63 in 10.0 mi Variable 4.6 mph - N/A   Clear
10:53 AM 23.0 °F - 10.0 °F 58% 30.63 in 10.0 mi Calm Calm - N/A   Clear
11:53 AM 26.1 °F - 6.1 °F 43% 30.60 in 10.0 mi Calm Calm - N/A   Clear
12:53 PM 28.0 °F 22.8 °F 10.0 °F 47% 30.57 in 10.0 mi Variable 4.6 mph - N/A   Clear
1:53 PM 28.9 °F - 10.0 °F 45% 30.55 in 10.0 mi Calm Calm - N/A   Clear
2:53 PM 30.9 °F - 10.0 °F 42% 30.54 in 10.0 mi Calm Calm - N/A   Clear
3:53 PM 30.9 °F 25.2 °F 10.9 °F 43% 30.53 in 10.0 mi WNW 5.8 mph - N/A   Clear
4:53 PM 28.9 °F 25.2 °F 9.0 °F 43% 30.53 in 10.0 mi NNE 3.5 mph - N/A   Clear
5:53 PM 27.0 °F 19.5 °F 6.1 °F 41% 30.54 in 10.0 mi North 6.9 mph - N/A   Clear
6:53 PM 25.0 °F - 3.9 °F 41% 30.55 in 10.0 mi Calm Calm - N/A   Clear
7:53 PM 21.0 °F 16.2 °F 8.1 °F 57% 30.55 in 10.0 mi NE 3.5 mph - N/A   Clear
9:53 PM 21.0 °F 12.4 °F 9.0 °F 60% 30.55 in 10.0 mi East 6.9 mph - N/A   Clear
10:53 PM 21.0 °F 12.4 °F 10.0 °F 63% 30.52 in 10.0 mi East 6.9 mph - N/A   Clear
11:53 PM 19.9 °F 11.1 °F 9.0 °F 62% 30.50 in 10.0 mi ENE 6.9 mph - N/A   Clear